DL9GKJ-13 Weather Reports


time (UTC)temp
C
wind
direction
speed
KPH
gust
KPH
rain 1hr
cm
rain 24hr
cm
rain mn
cm
humidity
%
barometer
mb
20260902100406 18 251 4.8 16.1 0.00 0.28 0.00 81 988.1
20260902100005 18 254 4.8 17.7 0.00 0.28 0.00 81 988.0
20260902095205 18 262 0.0 22.5 0.00 0.28 0.00 82 988.1
20260902094805 18 248 1.6 22.5 0.00 0.28 0.00 81 988.0
20260902094405 18 244 4.8 22.5 0.00 0.28 0.00 80 988.0
20260902094005 18 240 6.4 19.3 0.00 0.28 0.00 79 988.0
20260902093205 18 245 4.8 22.5 0.00 0.28 0.00 81 987.9
20260902092805 18 245 6.4 22.5 0.00 0.28 0.00 81 988.0
20260902092405 18 236 4.8 22.5 0.00 0.28 0.00 80 987.9
20260902091205 18 233 6.4 24.1 0.00 0.28 0.00 79 987.9
20260902090805 18 241 9.7 24.1 0.00 0.28 0.00 79 988.0
20260902090005 18 252 6.4 22.5 0.00 0.28 0.00 81 988.1
20260902085606 18 245 14.5 22.5 0.00 0.28 0.00 81 988.1
20260902085205 18 247 1.6 17.7 0.00 0.28 0.00 81 988.1
20260902084805 18 258 4.8 22.5 0.00 0.28 0.00 83 988.0
20260902084405 17 263 4.8 22.5 0.00 0.28 0.00 84 988.0
20260902084005 17 254 4.8 19.3 0.00 0.28 0.00 86 988.1
20260902083607 17 254 11.3 22.5 0.00 0.28 0.00 85 987.9
20260902083205 17 264 6.4 22.5 0.00 0.28 0.00 85 988.1
20260902082805 17 257 9.7 22.5 0.00 0.28 0.00 87 988.0
20260902082405 17 242 1.6 16.1 0.00 0.28 0.00 88 988.1
20260902082005 17 242 4.8 16.1 0.00 0.28 0.00 88 988.0
20260902081605 16 258 1.6 16.1 0.00 0.28 0.00 89 988.0
20260902081205 16 262 4.8 16.1 0.00 0.28 0.00 89 988.0
20260902080806 16 266 6.4 16.1 0.00 0.28 0.00 90 988.0
20260902080405 16 249 6.4 16.1 0.00 0.28 0.00 89 988.1
20260902080005 16 247 4.8 16.1 0.00 0.28 0.00 90 988.1
20260902075605 16 259 4.8 16.1 0.00 0.28 0.00 90 988.0
20260902075205 16 242 4.8 17.7 0.00 0.28 0.00 90 988.0
20260902074805 16 239 4.8 17.7 0.00 0.28 0.00 91 988.0
20260902074405 16 241 6.4 17.7 0.00 0.28 0.00 91 988.0
20260902074005 16 241 1.6 17.7 0.00 0.28 0.00 91 988.0
20260902073605 16 243 6.4 17.7 0.00 0.28 0.00 92 987.9
20260902073205 16 243 1.6 16.1 0.00 0.28 0.00 91 987.9
20260902072805 16 246 4.8 11.3 0.00 0.28 0.00 92 988.0
20260902072405 15 255 4.8 11.3 0.00 0.28 0.00 93 988.0
20260902072005 15 254 1.6 11.3 0.00 0.28 0.00 93 987.9
20260902071605 15 251 1.6 12.9 0.00 0.28 0.00 94 988.0
20260902071205 15 261 4.8 16.1 0.00 0.28 0.00 95 987.9
20260902070405 15 262 1.6 16.1 0.00 0.28 0.00 96 987.8
20260902070007 15 254 4.8 16.1 0.00 0.28 0.00 96 987.9
20260902065605 15 256 6.4 16.1 0.00 0.28 0.00 96 987.8
20260902065205 15 248 4.8 16.1 0.00 0.28 0.00 96 987.9
20260902064805 15 264 1.6 16.1 0.00 0.28 0.00 97 987.9
20260902064405 15 258 1.6 11.3 0.00 0.28 0.00 98 987.9
20260902064005 14 252 4.8 11.3 0.00 0.28 0.00 98 987.9
20260902063606 14 239 1.6 9.7 0.00 0.28 0.00 98 987.9
20260902063205 14 231 1.6 6.4 0.00 0.28 0.00 99 987.8
20260902062806 14 234 1.6 9.7 0.00 0.28 0.00 99 987.9
20260902062405 13 237 1.6 9.7 0.00 0.28 0.00 99 987.8
20260902062005 13 243 1.6 9.7 0.00 0.28 0.00 99 987.8
20260902061605 13 248 1.6 6.4 0.00 0.28 0.00 99 987.8
20260902060806 13 244 0.0 6.4 0.00 0.28 0.00 99 987.7
20260902060405 13 256 0.0 9.7 0.00 0.28 0.00 99 987.8
20260902060005 13 261 1.6 9.7 0.00 0.28 0.00 99 987.8
20260902055605 13 251 0.0 11.3 0.00 0.28 0.00 99 987.9
20260902055205 13 239 1.6 11.3 0.00 0.28 0.00 99 987.8
20260902054805 13 227 1.6 6.4 0.00 0.28 0.00 99 987.7
20260902054405 13 225 0.0 6.4 0.00 0.28 0.00 99 987.7
20260902054005 13 229 0.0 4.8 0.00 0.28 0.00 99 987.8
20260902053606 13 229 1.6 6.4 0.00 0.28 0.00 99 987.7
20260902053205 13 229 0.0 9.7 0.00 0.28 0.00 99 987.6
20260902052805 13 233 1.6 9.7 0.00 0.28 0.00 99 987.6
20260902052405 13 233 0.0 9.7 0.00 0.28 0.00 99 987.6
20260902052005 12 236 1.6 4.8 0.00 0.28 0.00 99 987.7
20260902050805 12 251 0.0 4.8 0.00 0.28 0.00 99 987.7
20260902050405 12 251 0.0 4.8 0.00 0.28 0.00 99 987.6
20260902050008 10 258 0.0 4.8 0.00 0.28 0.00 99 987.6
20260902045605 2 262 0.0 4.8 0.00 0.28 0.00 99 987.6
20260902045205 -11 256 0.0 4.8 0.00 0.28 0.00 99 987.5
20260902044405 -21 267 0.0 4.8 0.00 0.28 0.00 99 987.5
20260902044005 -26 270 0.0 4.8 0.00 0.28 0.00 99 987.6
20260902043605 -29 270 0.0 4.8 0.00 0.28 0.00 99 987.6
20260902043205 -32 270 0.0 4.8 0.00 0.28 0.00 99 987.5
20260902042805 -40 0 0.0 0.0 0.00 0.28 0.00 99 987.5
20260902042405 -40 0 0.0 0.0 0.00 0.28 0.00 99 987.5
20260902042006 -40 0 0.0 0.0 0.00 0.28 0.00 99 987.5
20260902041605 -40 0 0.0 0.0 0.00 0.28 0.00 99 987.4
20260902041205 -40 0 0.0 0.0 0.00 0.28 0.00 99 987.4
20260902040405 -40 270 0.0 4.8 0.00 0.28 0.00 99 987.5
20260902040005 -40 270 0.0 4.8 0.00 0.28 0.00 99 987.5
20260902035605 -40 270 0.0 4.8 0.00 0.28 0.00 99 987.6
20260902034005 -40 0 0.0 0.0 0.00 0.28 0.00 99 987.7
20260902033605 -40 270 0.0 1.6 0.00 0.28 0.00 99 987.8
20260902033205 -40 270 0.0 1.6 0.00 0.28 0.00 99 987.9
20260902032805 -40 270 0.0 1.6 0.00 0.28 0.00 99 987.7
20260902032005 -40 270 0.0 1.6 0.00 0.28 0.00 99 987.7
20260902031605 -40 270 0.0 4.8 0.00 0.28 0.00 99 987.7
20260902031205 -40 270 0.0 4.8 0.00 0.28 0.00 99 987.7
20260902030806 -40 270 0.0 4.8 0.00 0.28 0.00 99 987.7
20260902030005 -40 270 0.0 4.8 0.00 0.28 0.00 99 987.8
20260902024405 -40 270 0.0 1.6 0.00 0.28 0.00 99 987.6
20260902024005 -40 0 0.0 0.0 0.00 0.28 0.00 99 987.7
20260902022805 -40 0 0.0 0.0 0.00 0.28 0.00 99 987.7
20260902022405 -40 270 0.0 1.6 0.00 0.28 0.00 99 987.6
20260902022005 -40 270 0.0 1.6 0.00 0.28 0.00 99 987.6
20260902021605 -40 0 0.0 0.0 0.00 0.28 0.00 99 987.7
20260902021205 -40 0 0.0 0.0 0.00 0.28 0.00 99 987.6
20260902020805 -40 0 0.0 0.0 0.00 0.28 0.00 99 987.5
20260902020405 -40 270 0.0 1.6 0.00 0.28 0.00 99 987.6
20260902020005 -40 270 0.0 4.8 0.00 0.28 0.00 99 987.5
20260902015605 -40 270 0.0 4.8 0.00 0.28 0.00 99 987.7
20260902015205 -40 270 0.0 4.8 0.00 0.28 0.00 99 987.6
20260902014805 -40 0 0.0 0.0 0.00 0.28 0.00 99 987.6
20260902014405 -40 0 0.0 0.0 0.00 0.28 0.00 99 987.5
20260902014005 -37 0 0.0 0.0 0.00 0.28 0.00 99 987.6
20260902013605 -34 0 0.0 0.0 0.00 0.28 0.00 99 987.5
20260902013205 -29 270 0.0 1.6 0.00 0.28 0.00 99 987.4
20260902012405 -26 270 0.0 4.8 0.00 0.28 0.00 99 987.5
20260902011606 -23 264 0.0 4.8 0.00 0.28 0.00 99 987.5
20260902010805 -10 264 0.0 9.7 0.00 0.28 0.00 99 987.5
20260902010405 -10 270 0.0 9.7 0.00 0.28 0.00 99 987.4
20260902010005 -5 270 1.6 6.4 0.00 0.28 0.00 99 987.6
20260902005605 -4 256 0.0 6.4 0.00 0.28 0.00 99 987.5
20260902005205 -10 246 0.0 6.4 0.00 0.28 0.00 99 987.6
20260902004805 -4 247 0.0 6.4 0.00 0.28 0.00 99 987.6
20260902004405 -10 262 0.0 6.4 0.00 0.28 0.00 99 987.7
20260902004006 -4 260 0.0 11.3 0.00 0.28 0.00 99 987.6
20260902003605 1 263 1.6 11.3 0.00 0.28 0.00 99 987.5
20260902003205 -1 263 1.6 11.3 0.00 0.28 0.00 99 987.7
20260902002805 6 263 0.0 11.3 0.00 0.28 0.00 99 987.6
20260902002405 6 261 1.6 11.3 0.00 0.28 0.00 99 987.6
20260902002005 9 267 1.6 9.7 0.00 0.28 0.00 99 987.6
20260902001606 15 270 4.8 9.7 0.00 0.28 0.00 99 987.7
20260902001204 12 270 0.0 6.4 0.00 0.28 0.00 99 987.6
20260902000805 10 266 1.6 9.7 0.00 0.28 0.00 99 987.7
20260902000406 10 262 1.6 9.7 0.00 0.28 0.00 99 987.6
20260902000006 10 254 1.6 9.7 0.00 0.28 0.00 99 987.7
20260901235605 7 265 0.0 6.4 0.00 0.28 0.00 99 987.7
20260901235205 10 255 0.0 11.3 0.00 0.28 0.00 99 987.6
20260901234405 12 260 0.0 11.3 0.00 0.28 0.00 99 987.6
20260901234005 12 270 0.0 4.8 0.00 0.28 0.00 99 987.7
20260901233605 6 270 0.0 9.7 0.00 0.28 0.00 99 987.5
20260901232805 6 270 0.0 9.7 0.00 0.28 0.00 99 987.6
20260901232405 9 263 0.0 9.7 0.00 0.28 0.00 99 987.5
20260901232006 15 252 0.0 11.3 0.00 0.28 0.00 99 987.5
20260901231606 12 256 0.0 11.3 0.00 0.28 0.00 99 987.4
20260901231205 12 266 1.6 11.3 0.00 0.28 0.00 99 987.5
20260901230805 12 268 0.0 9.7 0.00 0.28 0.00 99 987.4
20260901230405 12 269 4.8 9.7 0.00 0.28 0.00 99 987.5
20260901230005 12 270 1.6 9.7 0.00 0.28 0.00 99 987.4
20260901225606 12 270 0.0 9.7 0.00 0.28 0.00 99 987.4
20260901225205 12 270 0.0 9.7 0.00 0.28 0.00 99 987.4
20260901224805 12 270 1.6 11.3 0.00 0.28 0.00 99 987.3
20260901224405 15 270 1.6 11.3 0.00 0.28 0.00 99 987.4
20260901224005 15 270 0.0 17.7 0.00 0.28 0.00 98 987.4
20260901223605 15 266 4.8 17.7 0.00 0.28 0.00 98 987.4
20260901223205 15 262 4.8 11.3 0.00 0.28 0.00 98 987.4
20260901222805 15 268 1.6 11.3 0.00 0.28 0.00 98 987.4
20260901222405 15 260 0.0 11.3 0.00 0.28 0.00 98 987.3
20260901222005 12 256 1.6 11.3 0.00 0.28 0.00 98 987.4
20260901221605 12 251 1.6 9.7 0.00 0.28 0.00 98 987.4
20260901221205 12 250 1.6 9.7 0.00 0.28 0.00 98 987.3
20260901220405 12 247 0.0 12.9 0.00 0.28 0.00 97 987.3
20260901220007 10 263 0.0 12.9 0.00 0.28 0.00 97 987.2
20260901215205 12 266 1.6 16.1 0.00 0.28 0.28 96 987.4
20260901214805 12 269 1.6 12.9 0.00 0.28 0.28 99 987.3
20260901214406 15 262 4.8 12.9 0.00 0.28 0.28 96 987.3
20260901214005 15 257 4.8 12.9 0.00 0.28 0.28 95 987.3
20260901213605 16 255 4.8 16.1 0.00 0.28 0.28 95 987.2
20260901213205 16 259 1.6 17.7 0.00 0.28 0.28 95 987.3
20260901212805 16 259 4.8 17.7 0.00 0.28 0.28 94 987.2
20260901212405 16 261 4.8 17.7 0.00 0.28 0.28 94 987.0
20260901212005 16 270 4.8 12.9 0.00 0.28 0.28 94 987.1
20260901211605 16 263 1.6 12.9 0.00 0.28 0.28 94 987.1
20260901211205 16 259 4.8 12.9 0.00 0.28 0.28 94 987.2
20260901210805 16 256 0.0 11.3 0.00 0.28 0.28 93 987.2
20260901210405 16 255 4.8 16.1 0.00 0.28 0.28 93 987.0
20260901210005 16 246 1.6 16.1 0.00 0.28 0.28 93 987.1
20260901205605 16 251 6.4 16.1 0.00 0.28 0.28 93 987.0
20260901205205 16 255 4.8 16.1 0.00 0.28 0.28 92 987.1
20260901204805 16 259 4.8 16.1 0.00 0.28 0.28 92 987.2
20260901204405 16 263 1.6 16.1 0.00 0.28 0.28 92 987.0
20260901204005 16 267 4.8 16.1 0.00 0.28 0.28 91 987.1
20260901203605 16 263 1.6 12.9 0.00 0.28 0.28 91 987.0
20260901203206 16 260 4.8 12.9 0.00 0.28 0.28 91 987.0
20260901202805 15 258 1.6 12.9 0.00 0.28 0.28 91 986.9
20260901202005 10 267 1.6 6.4 0.00 0.28 0.28 91 987.0
20260901200405 15 270 1.6 11.3 0.00 0.28 0.28 90 987.0
20260901195605 12 270 1.6 11.3 0.00 0.28 0.28 90 986.9
20260901195205 12 267 1.6 11.3 0.00 0.28 0.28 90 987.0
20260901194805 12 267 0.0 16.1 0.00 0.28 0.28 89 987.1
20260901194405 15 262 0.0 16.1 0.00 0.28 0.28 88 986.9
20260901194005 16 263 1.6 16.1 0.00 0.28 0.28 88 986.9
20260901193605 16 268 0.0 9.7 0.00 0.28 0.28 88 987.0
20260901193205 16 268 0.0 11.3 0.00 0.28 0.28 87 986.9
20260901192806 16 270 0.0 11.3 0.00 0.28 0.28 87 986.8
20260901192405 16 270 4.8 11.3 0.00 0.28 0.28 87 986.8
20260901192004 16 265 0.0 11.3 0.00 0.28 0.28 87 987.0
20260901191205 16 262 4.8 11.3 0.00 0.28 0.28 87 986.9
20260901190805 16 257 0.0 17.7 0.00 0.28 0.28 86 986.9
20260901190405 16 256 0.0 17.7 0.00 0.28 0.28 85 987.0
20260901190005 16 254 9.7 17.7 0.00 0.28 0.28 85 986.8
20260901185605 16 262 4.8 16.1 0.00 0.28 0.28 84 986.8
20260901185205 16 262 6.4 16.1 0.00 0.28 0.28 85 986.7
20260901184805 16 265 0.0 11.3 0.00 0.28 0.28 86 986.7
20260901184405 16 261 1.6 11.3 0.00 0.28 0.28 86 986.7
20260901184005 16 259 1.6 16.1 0.00 0.28 0.28 86 986.8
20260901183605 16 264 4.8 16.1 0.00 0.28 0.28 87 986.6
20260901183205 16 260 0.0 16.1 0.00 0.28 0.28 90 986.5
20260901182805 16 267 1.6 11.3 0.00 0.28 0.28 91 986.5
20260901182405 16 270 0.0 6.4 0.00 0.28 0.28 93 986.6
20260901182005 17 266 0.0 11.3 0.00 0.28 0.28 93 986.5
20260901181605 17 259 0.0 11.3 0.00 0.28 0.28 93 986.6
20260901181205 17 248 1.6 22.5 0.00 0.28 0.28 93 986.5
20260901180804 17 253 0.0 22.5 0.00 0.28 0.28 92 986.4
20260901180405 17 266 4.8 22.5 0.00 0.28 0.28 92 986.4
20260901180005 17 257 1.6 9.7 0.00 0.28 0.28 91 986.5
20260901174805 17 264 4.8 17.7 0.00 0.28 0.28 90 986.2
20260901174404 17 256 4.8 17.7 0.00 0.30 0.28 90 986.3
20260901174007 17 247 4.8 16.1 0.00 0.30 0.28 89 986.3
20260901173206 17 256 1.6 22.5 0.00 0.30 0.28 89 986.2
20260901172805 17 259 6.4 22.5 0.00 0.30 0.28 88 986.5
20260901172005 17 259 4.8 24.1 0.00 0.30 0.28 89 986.3
20260901171605 17 257 6.4 24.1 0.00 0.30 0.28 89 986.2
20260901171204 17 257 4.8 22.5 0.00 0.30 0.28 88 986.3
20260901170805 17 266 9.7 19.3 0.00 0.30 0.28 88 986.2
20260901170005 17 249 4.8 27.4 0.00 0.30 0.28 87 986.2
20260901165605 17 251 9.7 27.4 0.00 0.30 0.28 87 986.0
20260901165205 17 255 9.7 19.3 0.00 0.30 0.28 90 986.2
20260901164805 17 261 4.8 19.3 0.00 0.30 0.28 92 986.1
20260901164404 18 259 4.8 16.1 0.00 0.30 0.28 92 986.0
20260901164005 18 252 6.4 16.1 0.00 0.30 0.28 91 986.2
20260901163605 18 259 4.8 16.1 0.00 0.30 0.28 92 985.8
20260901163205 18 257 1.6 12.9 0.00 0.30 0.28 91 986.0
20260901162805 18 252 1.6 12.9 0.00 0.30 0.28 90 985.9
20260901162404 17 248 1.6 11.3 0.00 0.30 0.28 90 985.9
20260901162005 17 246 0.0 11.3 0.00 0.30 0.28 91 986.0
20260901161605 17 250 4.8 11.3 0.00 0.30 0.28 92 985.8
20260901160805 17 249 4.8 22.5 0.00 0.30 0.28 92 985.9
20260901160405 18 243 1.6 27.4 0.00 0.30 0.28 92 985.9
20260901160005 18 244 1.6 27.4 0.00 0.30 0.28 93 985.8
20260901155605 18 262 6.4 27.4 0.00 0.30 0.28 91 985.9
20260901154804 18 269 6.4 24.1 0.00 0.30 0.28 89 985.8
20260901154405 18 258 11.3 19.3 0.00 0.30 0.28 86 985.8
20260901154005 18 248 9.7 17.7 0.00 0.30 0.28 86 985.8
20260901153605 19 253 1.6 17.7 0.00 0.30 0.28 86 985.7
20260901153205 19 257 4.8 17.7 0.00 0.30 0.28 85 985.7
20260901152805 19 260 1.6 17.7 0.00 0.30 0.28 87 985.6
20260901152405 19 258 1.6 17.7 0.00 0.30 0.28 87 985.5
20260901151605 19 252 9.7 19.3 0.00 0.30 0.28 85 985.6
20260901151205 20 255 1.6 24.1 0.00 0.30 0.28 85 985.6
20260901150805 19 256 4.8 24.1 0.00 0.30 0.28 84 985.5
20260901150405 20 253 4.8 24.1 0.00 0.30 0.28 84 985.5
20260901150006 20 250 9.7 24.1 0.00 0.30 0.28 83 985.4
20260901145605 20 257 11.3 22.5 0.00 0.33 0.28 83 985.5
20260901145205 20 253 1.6 24.1 0.00 0.33 0.28 85 985.3
20260901144805 20 258 0.0 24.1 0.00 0.33 0.28 85 985.3
20260901144405 20 269 14.5 24.1 0.00 0.33 0.28 83 985.1
20260901144005 20 265 6.4 24.1 0.00 0.33 0.28 85 985.1
20260901143205 19 256 9.7 24.1 0.00 0.33 0.28 85 985.0
20260901142805 19 242 4.8 24.1 0.00 0.33 0.28 87 985.2
20260901142406 19 239 6.4 24.1 0.00 0.33 0.28 88 985.3
20260901141605 19 254 9.7 24.1 0.00 0.33 0.28 86 985.1
20260901140805 18 248 6.4 27.4 0.00 0.33 0.28 88 985.3
20260901140405 18 251 9.7 27.4 0.00 0.33 0.28 88 985.1
20260901135204 18 247 6.4 27.4 0.00 0.33 0.28 91 985.3
20260901134805 18 239 14.5 27.4 0.00 0.33 0.28 89 985.3
20260901134005 18 242 6.4 24.1 0.00 0.33 0.28 91 985.3
20260901133605 18 247 6.4 24.1 0.00 0.33 0.28 90 985.3
20260901132804 18 245 6.4 30.6 0.00 0.33 0.28 89 985.2
20260901132405 18 251 14.5 30.6 0.00 0.33 0.28 88 985.2
20260901132005 18 251 11.3 24.1 0.03 0.33 0.28 89 985.3
20260901131606 18 250 11.3 24.1 0.03 0.33 0.28 92 985.2
20260901131205 17 258 9.7 16.1 0.03 0.33 0.28 94 985.2
20260901130805 17 270 0.0 9.7 0.03 0.33 0.28 96 985.1
20260901130005 17 270 1.6 12.9 0.28 0.33 0.28 98 984.9
20260901125605 17 265 4.8 12.9 0.28 0.33 0.28 99 985.1
20260901125205 17 264 4.8 12.9 0.28 0.33 0.28 99 984.9
20260901124805 17 260 1.6 22.5 0.28 0.33 0.28 99 985.1
20260901124405 17 253 1.6 22.5 0.28 0.33 0.28 99 985.1
20260901124005 17 257 6.4 22.5 0.28 0.33 0.28 99 985.1
20260901123605 17 260 4.8 17.7 0.28 0.33 0.28 99 985.1
20260901123205 17 259 6.4 17.7 0.28 0.33 0.28 99 985.2
20260901122805 16 266 4.8 12.9 0.28 0.33 0.28 99 985.1
20260901122404 16 266 1.6 9.7 0.28 0.33 0.28 99 985.0
20260901122005 16 254 4.8 9.7 0.23 0.30 0.23 99 985.0
20260901121606 17 238 0.0 22.5 0.23 0.30 0.23 99 984.9
20260901121204 18 251 0.0 30.6 0.23 0.30 0.23 98 984.9
20260901120805 20 256 4.8 30.6 0.20 0.28 0.20 95 985.0
20260901120405 20 262 14.5 24.1 0.03 0.10 0.03 87 985.3
20260901120005 20 261 1.6 19.3 0.00 0.05 0.00 80 984.7
20260901115604 20 260 9.7 19.3 0.00 0.05 0.00 79 984.8
20260901114805 20 255 1.6 17.7 0.00 0.05 0.00 83 984.7
20260901114405 20 261 1.6 16.1 0.00 0.05 0.00 86 984.7
20260901113605 20 265 4.8 24.1 0.00 0.05 0.00 86 984.7
20260901112805 21 265 1.6 22.5 0.00 0.05 0.00 82 984.6
20260901112405 21 259 0.0 19.3 0.00 0.05 0.00 80 984.6
20260901111605 21 257 9.7 19.3 0.00 0.05 0.00 78 984.4
20260901110804 20 251 1.6 17.7 0.00 0.05 0.00 81 984.5
20260901110405 20 252 4.8 19.3 0.00 0.05 0.00 82 984.6
20260901110005 20 242 6.4 24.1 0.00 0.05 0.00 83 984.5
20260901105205 20 238 4.8 27.4 0.00 0.05 0.00 85 984.5
20260901104805 20 254 4.8 27.4 0.00 0.05 0.00 84 984.5
20260901104005 20 255 6.4 30.6 0.00 0.05 0.00 86 984.4
20260901103605 20 255 14.5 30.6 0.00 0.05 0.00 82 984.4
20260901103205 20 249 17.7 29.0 0.00 0.05 0.00 79 984.3
20260901102804 20 240 14.5 29.0 0.00 0.05 0.00 80 984.2
20260901102405 20 248 16.1 27.4 0.00 0.05 0.00 80 984.4
20260901102005 20 259 6.4 19.3 0.00 0.05 0.00 80 984.2
20260901101605 20 261 9.7 27.4 0.00 0.05 0.00 82 984.2
20260901101205 20 250 4.8 27.4 0.00 0.05 0.00 81 984.2
20260901100804 20 262 4.8 27.4 0.00 0.05 0.00 81 984.3